Regional Weather Roundup
Issued by NWS Mt. Holly, NJ

Home | Current Version | Previous Version | Text Only | Print | Product List | Glossary On
Versions: 1 2 3 4 5 6 7 8 9 10 11 12 13 14 15 16 17 18 19 20 21 22 23 24 25 26 27 28 29 30 31 32 33 34 35 36 37 38 39 40 41 42 43 44 45 46 47 48 49 50
000
ASUS41 KPHI 230210
RWRPHI

REGIONAL WEATHER ROUNDUP
NATIONAL WEATHER SERVICE MOUNT HOLLY NJ
1000 PM EDT TUE JUL 22 2014

NOTE:  "FAIR" INDICATES FEW OR NO CLOUDS BELOW 12,000 FEET WITH NO
SIGNIFICANT WEATHER AND/OR OBSTRUCTIONS TO VISIBILITY.

 * = STATION DOES NOT REPORT PRECIPITATION (E.G. RAIN, SNOW, ETC.)
        OR FOG.

NJZ015>026-230300-
SOUTHERN NEW JERSEY

CITY           SKY/WX    TMP DP  RH WIND       PRES   REMARKS
POMONA         FAIR      72  68  87 S5        30.11S
RIO GRANDE*    FAIR      72  64  78 S6        30.12S
MILLVILLE      FAIR      72  67  84 CALM      30.11S
WRIGHTSTOWN    FAIR      73  61  67 S8        30.08S
MOUNT HOLLY    FAIR      74  64  71 S5        30.09S
TRENTON        FAIR      77  64  64 S9        30.08R

$$
NJZ001>014-230300-
NORTHERN NEW JERSEY

CITY           SKY/WX    TMP DP  RH WIND       PRES   REMARKS
SUSSEX         FAIR      76  70  82 CALM      30.06S
ANDOVER*         N/A     74  70  87 CALM      30.07S
NEWARK         FAIR      80  67  64 S12       30.06R
TETERBORO      FAIR      81  68  64 S6        30.04S
CALDWELL       FAIR      81  66  60 VRB5      30.06S
SOMERVILLE     FAIR      79  67  66 S5        30.05R
ALLAIRE*       FAIR      75  59  57 SW8       30.09F
TOMS RIVER*    FAIR      72  64  78 S5        30.10F

$$
PAZ043-044-047-054-055-060>062-066>071-230300-
EASTERN PENNSYLVANIA

CITY           SKY/WX    TMP DP  RH WIND       PRES   REMARKS
PHILADELPHIA   FAIR      77  59  53 S8        30.10R
NORTH PHILA    FAIR      79  61  53 SW8       30.10S
BLUE BELL      FAIR      77  64  65 S6        30.09S
DOYLESTOWN     FAIR      76  65  68 S7        30.09R
QUAKERTOWN*    FAIR      75  68  78 S3        30.10S
POTTSTOWN      FAIR      76  65  68 S7        30.11R
LANCASTER      FAIR      76  66  71 S6        30.09R
COATESVILLE    FAIR      73  68  83 CALM      30.12S
READING        FAIR      78  66  66 S6        30.07S
ALLENTOWN      FAIR      78  68  71 SW7       30.07S
MOUNT POCONO   FAIR      73  67  81 SW7       30.13S
HAZLETON       FAIR      73  70  88 CALM      30.15S
WILKES BARRE   FAIR      78  68  71 S6        30.07S

$$
DEZALL-MDZ008-012-015-019-020-230300-
DELAWARE AND EASTERN MARYLAND

CITY           SKY/WX    TMP DP  RH WIND       PRES   REMARKS
WILMINGTON     FAIR      76  66  71 S12       30.10S
DOVER          FAIR      73  66  79 SE5       30.09R
GEORGETOWN     FAIR      73  66  78 S13       30.11S
PATUXENT       FAIR      75  67  76 S5        30.10R
OCEAN CITY     FAIR      69  67  93 CALM      30.11S
WALLOPS ISLAND FAIR      75  71  87 S5        30.11S
CAMBRIDGE      FAIR      77  64  65 CALM      30.10S

$$
PAZ001-021-NYZ056-072-MDZ011-DCZ001-230300-
OTHER NEARBY LOCATIONS

CITY           SKY/WX    TMP DP  RH WIND       PRES   REMARKS
HARRISBURG     FAIR      80  69  69 S7        30.07R
STATE COLLEGE  FAIR      76  69  79 S5        30.08F
WILLIAMSPORT   FAIR      79  69  71 CALM      30.03S
BINGHAMTON     FAIR      75  67  76 SW7       30.07F
NEW YORK CITY  FAIR      78  66  66 VRB5      30.08F
BALTIMORE      FAIR      76  63  64 S3        30.08S
WASHINGTON DC  FAIR      80  67  64 S7        30.10R

$$


USA.gov is the U.S. government's official web portal to all federal, state and local government web resources and services.